TimeCST,TemperatureF,Dew PointF,Humidity,Sea Level PressureIn,VisibilityMPH,Wind Direction,Wind SpeedMPH,Gust SpeedMPH,PrecipitationIn,Events,Conditions,WindDirDegrees,DateUTC
12:53 AM,48.0,46.9,96,29.79,5.0,Calm,Calm,-,N/A,,Scattered Clouds,0,2012-12-09 06:53:00
1:53 AM,48.9,48.9,100,29.79,5.0,North,4.6,-,N/A,,Overcast,350,2012-12-09 07:53:00
2:53 AM,50.0,48.9,96,29.77,5.0,Calm,Calm,-,N/A,,Overcast,0,2012-12-09 08:53:00
3:29 AM,50.0,50.0,100,29.78,6.0,ENE,3.5,-,N/A,,Overcast,60,2012-12-09 09:29:00
3:53 AM,51.1,50.0,96,29.76,6.0,Calm,Calm,-,N/A,,Overcast,0,2012-12-09 09:53:00
4:53 AM,52.0,51.1,97,29.74,6.0,NNE,4.6,-,N/A,,Overcast,30,2012-12-09 10:53:00
5:21 AM,51.8,51.8,100,29.77,1.8,North,-9999.0,-,0.07,Rain,Heavy Rain,0,2012-12-09 11:21:00
5:33 AM,51.8,51.8,100,29.76,3.0,North,-9999.0,-,0.12,Rain,Heavy Rain,0,2012-12-09 11:33:00
5:43 AM,51.8,51.8,100,29.75,5.0,North,-9999.0,-,0.12,Rain-Thunderstorm,Light Rain,0,2012-12-09 11:43:00
5:53 AM,51.1,51.1,100,29.75,4.0,North,-9999.0,-,0.12,Rain-Thunderstorm,Light Rain,0,2012-12-09 11:53:00
6:24 AM,51.8,51.8,100,29.76,4.0,North,-9999.0,-,0.03,Rain,Light Rain,0,2012-12-09 12:24:00
6:50 AM,51.8,51.8,100,29.78,3.0,North,-9999.0,-,0.05,Rain,Light Rain,0,2012-12-09 12:50:00
6:53 AM,51.1,51.1,100,29.77,3.0,North,-9999.0,-,0.05,Rain,Light Rain,0,2012-12-09 12:53:00
7:12 AM,51.8,51.8,100,29.77,4.0,North,-9999.0,-,0.00,,Overcast,0,2012-12-09 13:12:00
7:53 AM,52.0,52.0,100,29.78,3.0,North,-9999.0,-,0.00,,Overcast,0,2012-12-09 13:53:00
8:13 AM,51.8,51.8,100,29.79,3.0,North,-9999.0,-,N/A,,Overcast,0,2012-12-09 14:13:00
8:26 AM,51.8,51.8,100,29.79,4.0,North,-9999.0,-,N/A,,Overcast,0,2012-12-09 14:26:00
8:53 AM,53.1,53.1,100,29.78,3.0,North,-9999.0,-,N/A,,Overcast,0,2012-12-09 14:53:00
9:13 AM,53.6,53.6,100,29.80,3.0,North,-9999.0,-,N/A,,Overcast,0,2012-12-09 15:13:00
9:25 AM,53.6,53.6,100,29.81,4.0,North,-9999.0,-,N/A,,Overcast,0,2012-12-09 15:25:00
9:53 AM,54.0,53.1,97,29.81,5.0,North,-9999.0,-,N/A,,Overcast,0,2012-12-09 15:53:00
10:05 AM,53.6,51.8,94,29.82,5.0,North,-9999.0,-,N/A,,Overcast,0,2012-12-09 16:05:00
10:27 AM,51.8,51.8,100,29.82,4.0,North,-9999.0,-,N/A,,Overcast,0,2012-12-09 16:27:00
10:34 AM,51.8,50.0,94,29.82,3.0,North,-9999.0,-,N/A,,Overcast,0,2012-12-09 16:34:00
10:53 AM,51.1,48.9,92,29.82,5.0,North,-9999.0,-,N/A,,Overcast,0,2012-12-09 16:53:00
11:36 AM,50.0,48.2,94,29.83,5.0,North,-9999.0,-,N/A,,Overcast,0,2012-12-09 17:36:00
11:53 AM,50.0,48.0,93,29.82,5.0,North,-9999.0,-,N/A,,Overcast,0,2012-12-09 17:53:00
12:53 PM,48.0,46.0,93,29.83,8.0,North,-9999.0,-,N/A,,Overcast,0,2012-12-09 18:53:00
1:53 PM,48.0,45.0,89,29.84,10.0,NNW,11.5,-,N/A,,Overcast,340,2012-12-09 19:53:00
2:19 PM,46.4,44.6,93,29.85,8.0,North,12.7,-,N/A,,Overcast,350,2012-12-09 20:19:00
2:53 PM,46.0,44.1,93,29.87,9.0,North,12.7,-,N/A,,Overcast,350,2012-12-09 20:53:00
3:06 PM,46.4,42.8,87,29.88,7.0,North,10.4,-,N/A,,Overcast,360,2012-12-09 21:06:00
3:53 PM,46.0,43.0,89,29.88,10.0,North,10.4,-,N/A,,Overcast,350,2012-12-09 21:53:00
4:02 PM,46.4,42.8,87,29.89,10.0,North,10.4,-,N/A,,Overcast,350,2012-12-09 22:02:00
4:22 PM,46.4,42.8,87,29.89,10.0,NNW,9.2,-,N/A,,Overcast,340,2012-12-09 22:22:00
4:53 PM,46.0,42.1,86,29.89,10.0,NNW,11.5,-,N/A,,Overcast,340,2012-12-09 22:53:00
5:53 PM,45.0,39.9,82,29.92,9.0,NNW,15.0,20.7,N/A,,Overcast,330,2012-12-09 23:53:00
6:53 PM,44.1,37.9,79,29.93,10.0,NNW,12.7,18.4,N/A,,Overcast,330,2012-12-10 00:53:00
7:53 PM,41.0,33.1,73,29.96,10.0,North,16.1,24.2,N/A,,Overcast,350,2012-12-10 01:53:00
8:53 PM,37.0,28.0,70,29.98,10.0,North,15.0,-,N/A,,Partly Cloudy,350,2012-12-10 02:53:00
9:53 PM,33.1,24.1,70,30.01,10.0,NNW,15.0,-,N/A,,Clear,330,2012-12-10 03:53:00
10:53 PM,30.0,21.0,69,30.03,10.0,NNW,17.3,24.2,N/A,,Clear,340,2012-12-10 04:53:00
11:53 PM,28.0,18.0,66,30.04,10.0,NNW,13.8,20.7,N/A,,Clear,330,2012-12-10 05:53:00